This is the latest recevied weather packets stored in our database for station/object 4S6DRJ-13. If no packets are shown the sender has not sent any weather packets the latest 10 day(s).
| Time | Temp. | Humidity | Pressure | Rain* | Wind** | Luminosity | Snow |
|---|---|---|---|---|---|---|---|
| 1788021708 | 28.33° C | 83% | 1011.3 hPa | 0 mm | 1.34 m/s, 180° | 0 W/m² | - |
| 1788021648 | 28.33° C | 83% | 1011.5 hPa | 0 mm | 0.45 m/s, 216° | 0 W/m² | - |
| 1788021586 | 28.33° C | 83% | 1011.4 hPa | 0 mm | 0.89 m/s, 188° | 0 W/m² | - |
| 1788021525 | 28.33° C | 83% | 1011.4 hPa | 0 mm | 0.45 m/s, 245° | 0 W/m² | - |
| 1788021465 | 28.33° C | 83% | 1011.3 hPa | 0 mm | 2.24 m/s, 221° | 0 W/m² | - |
| 1788021405 | 28.33° C | 83% | 1011.4 hPa | 0 mm | 0.45 m/s, 209° | 0 W/m² | - |
| 1788021342 | 28.33° C | 83% | 1011.2 hPa | 0 mm | 0.45 m/s, 211° | 0 W/m² | - |
| 1788021282 | 28.33° C | 83% | 1011.4 hPa | 0 mm | 0.45 m/s, 222° | 0 W/m² | - |
| 1788021219 | 28.33° C | 83% | 1011.4 hPa | 0 mm | 1.79 m/s, 233° | 0 W/m² | - |
| 1788021160 | 28.33° C | 83% | 1011.3 hPa | 0 mm | 0.45 m/s, 229° | 0 W/m² | - |
| 1788021098 | 28.33° C | 83% | 1011.4 hPa | 0 mm | 0 m/s | 0 W/m² | - |
| 1788021037 | 28.33° C | 83% | 1011.3 hPa | 0 mm | 0.89 m/s, 183° | 0 W/m² | - |
| 1788020976 | 28.33° C | 83% | 1011.4 hPa | 0 mm | 0.45 m/s, 209° | 0 W/m² | - |
| 1788020915 | 28.33° C | 83% | 1011.4 hPa | 0 mm | 0.89 m/s, 288° | 0 W/m² | - |
| 1788020854 | 28.33° C | 83% | 1011.4 hPa | 0 mm | 0.89 m/s, 197° | 0 W/m² | - |
| 1788020793 | 28.33° C | 83% | 1011.5 hPa | 0 mm | 1.34 m/s, 207° | 0 W/m² | - |
| 1788020732 | 28.33° C | 82% | 1011.3 hPa | 0 mm | 0.89 m/s, 191° | 0 W/m² | - |
| 1788020671 | 28.33° C | 82% | 1011.4 hPa | 0 mm | 1.34 m/s, 249° | 0 W/m² | - |
| 1788020610 | 28.33° C | 82% | 1011.6 hPa | 0 mm | 1.79 m/s, 236° | 0 W/m² | - |
| 1788020549 | 28.33° C | 82% | 1011.4 hPa | 0 mm | 0.89 m/s, 226° | 0 W/m² | - |
| 1788020488 | 28.33° C | 82% | 1011.4 hPa | 0 mm | 0.89 m/s, 199° | 0 W/m² | - |
| 1788020427 | 28.33° C | 82% | 1011.4 hPa | 0 mm | 0.89 m/s, 230° | 0 W/m² | - |
| 1788020366 | 28.33° C | 82% | 1011.5 hPa | 0 mm | 0.45 m/s, 207° | 0 W/m² | - |
| 1788020305 | 28.33° C | 82% | 1011.3 hPa | 0 mm | 0.89 m/s, 255° | 0 W/m² | - |
| 1788020245 | 28.33° C | 82% | 1011.2 hPa | 0 mm | 1.34 m/s, 228° | 0 W/m² | - |
* Rain latest hour (hover to see other rain measurements)
** Current wind speed in m/s (hover to see current wind gust speed)